UAL31 EDDM-KEWR

Flight info

Callsign UAL31
Flight time N/A
Altitude 34000
Route GIVMI1N GIVMI Y101 INBED DCT REKDI DCT LOHRE DCT ADKUV DCT DENUT L610 KOPUL Q60 OKSAW DCT TEWXI DCT LIPGO DCT KLY DCT ENULA DCT PIKIL/M082F340 DCT 57N020W 57N030W 57N040W 56N050W DCT JANJO/N0478F340 N714B YBC/N0483F380 DCT IMORI DCT HANAA FLOSI4
Aircraft B77W/H-SDE1E2E3FGHIJ2J3J4J5M1RWXY/LB1D1

Departure

Time N/A
Airport Munich Airport (EDDM)

Arrival

Time 2026-05-04 19:17
Airport Newark Liberty International Airport (KEWR)
Time Latitude Longitude Altitude Speed Heading
2026-05-04 18:38 43.32895 -73.54329 37804 ft 468 kts 206°
2026-05-04 18:39 43.21100 -73.60608 37788 ft 468 kts 206°
2026-05-04 18:40 43.14930 -73.63546 37812 ft 471 kts 202°
2026-05-04 18:40 43.09614 -73.65719 37792 ft 470 kts 201°
2026-05-04 18:41 43.06691 -73.66903 37688 ft 464 kts 202°
2026-05-04 18:41 43.03611 -73.68168 37408 ft 459 kts 202°
2026-05-04 18:41 43.00571 -73.69435 37081 ft 456 kts 203°
2026-05-04 18:42 42.97547 -73.70709 36696 ft 454 kts 203°
2026-05-04 18:42 42.94534 -73.71982 36305 ft 453 kts 203°
2026-05-04 18:42 42.91529 -73.73252 35929 ft 451 kts 204°
2026-05-04 18:42 42.88534 -73.74516 35580 ft 449 kts 204°
2026-05-04 18:43 42.85555 -73.75770 35227 ft 447 kts 204°
2026-05-04 18:43 42.82634 -73.76998 34910 ft 445 kts 204°
2026-05-04 18:43 42.79679 -73.78240 34584 ft 443 kts 204°
2026-05-04 18:43 42.76704 -73.79488 34261 ft 441 kts 204°
2026-05-04 18:44 42.73781 -73.80718 33928 ft 439 kts 205°
2026-05-04 18:44 42.71854 -73.81558 33688 ft 438 kts 206°
2026-05-04 18:44 42.68051 -73.83259 32960 ft 422 kts 206°
2026-05-04 18:44 42.65316 -73.84496 32034 ft 419 kts 206°
2026-05-04 18:45 42.62550 -73.85753 31231 ft 418 kts 206°
2026-05-04 18:45 42.59799 -73.86999 30542 ft 415 kts 206°
2026-05-04 18:45 42.57986 -73.87815 30134 ft 411 kts 205°
2026-05-04 18:46 42.57466 -73.88048 30028 ft 410 kts 205°
2026-05-04 18:46 42.54779 -73.89251 29357 ft 404 kts 205°
2026-05-04 18:46 42.52123 -73.90438 28663 ft 400 kts 205°
2026-05-04 18:46 42.49494 -73.91612 27978 ft 396 kts 205°
2026-05-04 18:47 42.46891 -73.92775 27277 ft 392 kts 205°
2026-05-04 18:47 42.44314 -73.93924 26646 ft 388 kts 205°
2026-05-04 18:47 42.41763 -73.95060 26022 ft 384 kts 205°
2026-05-04 18:47 42.39235 -73.96186 25401 ft 381 kts 205°
2026-05-04 18:48 42.36730 -73.97300 24791 ft 378 kts 205°
2026-05-04 18:48 42.34246 -73.98404 24206 ft 375 kts 204°
2026-05-04 18:48 42.31784 -73.99499 23638 ft 371 kts 204°
2026-05-04 18:48 42.29333 -74.00587 22998 ft 368 kts 204°
2026-05-04 18:49 42.26919 -74.01656 22407 ft 364 kts 204°
2026-05-04 18:49 42.24529 -74.02713 21834 ft 359 kts 204°
2026-05-04 18:49 42.22171 -74.03756 21268 ft 355 kts 204°
2026-05-04 18:49 42.19841 -74.04785 20689 ft 350 kts 204°
2026-05-04 18:50 42.17538 -74.05802 20147 ft 346 kts 204°
2026-05-04 18:50 42.15261 -74.06812 19604 ft 342 kts 204°
2026-05-04 18:50 42.13853 -74.07434 19284 ft 340 kts 203°
2026-05-04 18:51 42.13143 -74.07746 19122 ft 339 kts 203°
2026-05-04 18:51 42.10909 -74.08731 18552 ft 336 kts 203°
2026-05-04 18:51 42.08703 -74.09702 18076 ft 332 kts 203°
2026-05-04 18:51 42.06523 -74.10653 17542 ft 325 kts 203°
2026-05-04 18:52 42.04404 -74.11584 17090 ft 316 kts 203°
2026-05-04 18:52 42.02360 -74.12480 16739 ft 301 kts 203°
2026-05-04 18:52 42.00422 -74.13329 16492 ft 287 kts 203°
2026-05-04 18:52 41.98526 -74.14163 16179 ft 288 kts 204°
2026-05-04 18:53 41.96584 -74.15022 15862 ft 300 kts 203°
2026-05-04 18:53 41.94537 -74.15927 15528 ft 318 kts 203°
2026-05-04 18:53 41.92410 -74.16860 15152 ft 324 kts 203°
2026-05-04 18:53 41.90267 -74.17794 14767 ft 324 kts 203°
2026-05-04 18:54 41.88129 -74.18724 14410 ft 322 kts 203°
2026-05-04 18:54 41.86007 -74.19649 14055 ft 320 kts 203°
2026-05-04 18:54 41.83894 -74.20570 13699 ft 318 kts 203°
2026-05-04 18:54 41.81800 -74.21484 13315 ft 316 kts 203°
2026-05-04 18:55 41.79715 -74.22393 12939 ft 314 kts 203°
2026-05-04 18:55 41.76448 -74.23817 12382 ft 310 kts 203°
2026-05-04 18:56 41.76035 -74.23997 12309 ft 309 kts 203°
2026-05-04 18:56 41.74059 -74.24858 11972 ft 307 kts 203°
2026-05-04 18:56 41.72042 -74.25736 11640 ft 304 kts 203°
2026-05-04 18:56 41.70036 -74.26608 11287 ft 301 kts 202°
2026-05-04 18:57 41.68054 -74.27469 10972 ft 298 kts 202°
2026-05-04 18:57 41.66097 -74.28318 10642 ft 295 kts 202°
2026-05-04 18:57 41.64149 -74.29163 10319 ft 293 kts 202°
2026-05-04 18:57 41.62232 -74.29992 10141 ft 285 kts 202°
2026-05-04 18:58 41.60376 -74.30797 10009 ft 276 kts 203°
2026-05-04 18:58 41.58569 -74.31580 9789 ft 272 kts 203°
2026-05-04 18:58 41.56771 -74.32357 9467 ft 270 kts 202°
2026-05-04 18:58 41.54993 -74.33128 9164 ft 268 kts 203°
2026-05-04 18:59 41.53231 -74.33892 8869 ft 266 kts 202°
2026-05-04 18:59 41.51489 -74.34646 8574 ft 264 kts 203°
2026-05-04 18:59 41.49739 -74.35400 8286 ft 262 kts 203°
2026-05-04 18:59 41.48013 -74.36144 8013 ft 260 kts 203°
2026-05-04 19:00 41.46302 -74.36886 7719 ft 258 kts 203°
2026-05-04 19:00 41.44622 -74.37606 7440 ft 257 kts 202°
2026-05-04 19:00 41.42929 -74.38337 7152 ft 255 kts 202°
2026-05-04 19:00 41.41257 -74.39059 6946 ft 249 kts 203°
2026-05-04 19:01 41.39630 -74.39759 6824 ft 244 kts 202°
2026-05-04 19:01 41.38015 -74.40454 6754 ft 242 kts 203°
2026-05-04 19:01 41.36424 -74.41134 6624 ft 237 kts 203°
2026-05-04 19:01 41.34883 -74.41795 6500 ft 228 kts 203°
2026-05-04 19:02 41.33405 -74.42430 6390 ft 218 kts 203°
2026-05-04 19:02 41.31996 -74.43031 6304 ft 208 kts 203°
2026-05-04 19:02 41.30629 -74.43619 6236 ft 208 kts 203°
2026-05-04 19:02 41.29199 -74.44052 6142 ft 219 kts 182°
2026-05-04 19:03 41.27721 -74.43366 6083 ft 233 kts 154°
2026-05-04 19:03 41.26342 -74.42180 5984 ft 238 kts 153°
2026-05-04 19:03 41.24945 -74.40997 5885 ft 237 kts 153°
2026-05-04 19:03 41.23568 -74.39826 5761 ft 231 kts 153°
2026-05-04 19:04 41.22262 -74.38710 5661 ft 220 kts 154°
2026-05-04 19:04 41.21001 -74.37631 5549 ft 209 kts 154°
2026-05-04 19:04 41.19785 -74.36599 5481 ft 207 kts 154°
2026-05-04 19:04 41.18560 -74.35573 5428 ft 208 kts 153°
2026-05-04 19:05 41.17337 -74.34540 5371 ft 209 kts 155°
2026-05-04 19:05 41.16102 -74.33503 5286 ft 211 kts 154°
2026-05-04 19:05 41.14847 -74.32454 5180 ft 215 kts 154°
2026-05-04 19:05 41.13593 -74.31401 5066 ft 211 kts 154°
2026-05-04 19:06 41.12370 -74.30370 4981 ft 205 kts 154°
2026-05-04 19:06 41.11199 -74.29381 4869 ft 193 kts 153°
2026-05-04 19:06 41.10103 -74.28453 4816 ft 182 kts 154°
2026-05-04 19:06 41.09034 -74.27566 4747 ft 183 kts 155°
2026-05-04 19:07 41.07955 -74.26661 4663 ft 182 kts 154°
2026-05-04 19:07 41.06894 -74.25769 4604 ft 180 kts 154°
2026-05-04 19:07 41.05842 -74.24887 4526 ft 178 kts 154°
2026-05-04 19:07 41.04801 -74.24015 4431 ft 175 kts 155°
2026-05-04 19:08 41.03782 -74.23161 4361 ft 173 kts 154°
2026-05-04 19:08 41.02750 -74.22304 4327 ft 178 kts 155°
2026-05-04 19:08 41.01682 -74.21413 4240 ft 184 kts 155°
2026-05-04 19:08 41.00590 -74.20499 4170 ft 187 kts 155°
2026-05-04 19:09 40.99485 -74.19574 4083 ft 189 kts 155°
2026-05-04 19:09 40.98373 -74.18642 3987 ft 188 kts 154°
2026-05-04 19:09 40.97294 -74.17740 3900 ft 181 kts 154°
2026-05-04 19:09 40.96226 -74.16850 3825 ft 183 kts 155°
2026-05-04 19:10 40.95144 -74.15947 3782 ft 184 kts 156°
2026-05-04 19:10 40.94061 -74.15049 3668 ft 181 kts 156°
2026-05-04 19:10 40.93000 -74.14229 3598 ft 174 kts 159°
2026-05-04 19:10 40.91952 -74.13451 3511 ft 171 kts 158°
2026-05-04 19:11 40.90910 -74.12682 3475 ft 174 kts 157°
2026-05-04 19:11 40.89839 -74.11884 3412 ft 180 kts 157°
2026-05-04 19:11 40.89148 -74.11368 3372 ft 180 kts 159°
2026-05-04 19:11 40.88249 -74.10696 3272 ft 173 kts 158°
2026-05-04 19:12 40.87230 -74.09932 3196 ft 166 kts 157°
2026-05-04 19:12 40.85209 -74.08429 3057 ft 165 kts 158°
2026-05-04 19:12 40.84204 -74.07789 2979 ft 157 kts 176°
2026-05-04 19:13 40.83185 -74.08008 2823 ft 149 kts 206°
2026-05-04 19:13 40.82222 -74.08489 2640 ft 147 kts 203°
2026-05-04 19:13 40.81269 -74.08884 2473 ft 139 kts 206°
2026-05-04 19:13 40.80394 -74.09381 2299 ft 136 kts 210°
2026-05-04 19:14 40.79550 -74.09905 2125 ft 136 kts 209°
2026-05-04 19:14 40.78702 -74.10444 1932 ft 133 kts 211°
2026-05-04 19:14 40.77885 -74.11012 1785 ft 133 kts 211°
2026-05-04 19:14 40.77016 -74.11536 1636 ft 139 kts 210°
2026-05-04 19:15 40.76136 -74.12107 1410 ft 141 kts 211°
2026-05-04 19:15 40.75256 -74.12641 1190 ft 137 kts 208°
2026-05-04 19:15 40.74386 -74.13184 952 ft 140 kts 209°
2026-05-04 19:15 40.73524 -74.13745 910 ft 141 kts 210°
2026-05-04 19:16 40.72663 -74.14345 792 ft 134 kts 209°
2026-05-04 19:16 40.71774 -74.14847 608 ft 143 kts 207°
2026-05-04 19:16 40.70921 -74.15423 349 ft 131 kts 209°
2026-05-04 19:16 40.70074 -74.15927 153 ft 136 kts 211°
2026-05-04 19:17 40.69220 -74.16485 38 ft 135 kts 210°
2026-05-04 19:17 40.68501 -74.16953 26 ft 68 kts 205°
2026-05-04 19:17 40.68310 -74.17112 27 ft 19 kts 224°
2026-05-04 19:17 40.68244 -74.17213 26 ft 15 kts 233°
2026-05-04 19:18 40.68229 -74.17266 27 ft 4 kts 265°
2026-05-04 19:18 40.68241 -74.17302 27 ft 5 kts 315°
2026-05-04 19:18 40.68275 -74.17308 27 ft 5 kts
2026-05-04 19:18 40.68310 -74.17294 27 ft 6 kts 18°
2026-05-04 19:19 40.68349 -74.17272 27 ft 6 kts 24°
2026-05-04 19:19 40.68391 -74.17246 28 ft 7 kts 26°
2026-05-04 19:19 40.68433 -74.17218 28 ft 7 kts 26°
2026-05-04 19:19 40.68480 -74.17188 28 ft 8 kts 26°
2026-05-04 19:20 40.68532 -74.17154 28 ft 9 kts 26°
2026-05-04 19:20 40.68591 -74.17116 27 ft 10 kts 26°
2026-05-04 19:20 40.68659 -74.17073 27 ft 11 kts 26°
2026-05-04 19:20 40.68732 -74.17027 27 ft 12 kts 26°
2026-05-04 19:21 40.68810 -74.16977 27 ft 13 kts 26°
2026-05-04 19:21 40.68896 -74.16923 27 ft 14 kts 26°
2026-05-04 19:21 40.68958 -74.16883 27 ft 6 kts 26°
2026-05-04 19:21 40.68997 -74.16876 27 ft 6 kts 346°
2026-05-04 19:22 40.69030 -74.16912 28 ft 6 kts 303°
2026-05-04 19:22 40.69051 -74.16964 28 ft 7 kts 298°
2026-05-04 19:22 40.69075 -74.17027 27 ft 8 kts 294°
2026-05-04 19:22 40.69094 -74.17076 26 ft 9 kts 306°
2026-05-04 19:23 40.69152 -74.17080 27 ft 9 kts 22°
2026-05-04 19:23 40.69211 -74.17046 27 ft 9 kts 24°
2026-05-04 19:23 40.69272 -74.17006 27 ft 10 kts 22°
2026-05-04 19:23 40.69340 -74.16983 27 ft 10 kts
2026-05-04 19:24 40.69411 -74.16975 27 ft 10 kts
2026-05-04 19:24 40.69486 -74.16975 27 ft 11 kts 356°
2026-05-04 19:24 40.69564 -74.16993 27 ft 12 kts 348°
2026-05-04 19:24 40.69639 -74.17030 27 ft 12 kts 335°
2026-05-04 19:25 40.69714 -74.17077 27 ft 12 kts 334°
2026-05-04 19:25 40.69785 -74.17132 27 ft 12 kts 324°
2026-05-04 19:25 40.69847 -74.17207 27 ft 12 kts 316°
2026-05-04 19:25 40.69902 -74.17290 27 ft 12 kts 306°
2026-05-04 19:26 40.69946 -74.17387 27 ft 12 kts 291°
2026-05-04 19:26 40.69946 -74.17494 27 ft 12 kts 234°
2026-05-04 19:26 40.69886 -74.17577 27 ft 13 kts 225°
2026-05-04 19:26 40.69835 -74.17667 27 ft 12 kts 227°
2026-05-04 19:27 40.69794 -74.17716 27 ft 7 kts 221°
2026-05-04 19:27 40.69763 -74.17768 27 ft 5 kts 243°
2026-05-04 19:27 40.69752 -74.17799 27 ft 3 kts 244°
2026-05-04 19:27 40.69748 -74.17809 27 ft 0 kts 245°
2026-05-04 19:28 40.69747 -74.17812 27 ft 0 kts 245°
2026-05-04 19:28 40.69745 -74.17816 27 ft 0 kts 245°
2026-05-04 19:29 40.69749 -74.17806 27 ft 0 kts 245°
2026-05-04 19:29 40.69745 -74.17816 27 ft 0 kts 245°
2026-05-04 19:30 40.69748 -74.17808 27 ft 0 kts 245°